When you browse on this site, cookies collect data to enhance your experience and personalize the content and advertising you see.
Visit our Privacy Policy to learn more. By continuing to use the site, you agree to this use of cookies and data.
  • In Hungary
  • List of Countries
  • For 7 days
  • Water Temperature
  • Satellite Maps
  • Weather Map
  • News
  • Weather Widgets
  • user-avatar
    Login

    Hourly Weather Ordino

    Today, 21 April, Sunday

    Time Temperature Precipitation Wind Pressure Humidity
    00:00 +5°C° 0 mm 1 mps 632 mmHg 88%
    01:00 +5°C° 0.8 mm 1 mps 632 mmHg 89%
    02:00 +5°C° 0.8 mm 1 mps 631 mmHg 90%
    03:00 +5°C° 0.8 mm 1 mps 631 mmHg 91%
    04:00 +5°C° 0.6 mm 1 mps 630 mmHg 91%
    05:00 +5°C° 0.6 mm 1 mps 630 mmHg 91%
    06:00 +5°C° 0.6 mm 1 mps 630 mmHg 92%
    07:00 +5°C° 0.3 mm 1 mps 630 mmHg 89%
    08:00 +6°C° 0.3 mm 1 mps 630 mmHg 87%
    09:00 +6°C° 0.3 mm 2 mps 630 mmHg 85%
    10:00 +8°C° 0.1 mm 1 mps 630 mmHg 80%
    11:00 +9°C° 0.1 mm 1 mps 631 mmHg 75%
    12:00 +10°C° 0.1 mm 1 mps 631 mmHg 70%
    13:00 +11°C° 0.1 mm 1 mps 631 mmHg 70%
    14:00 +11°C° 0.1 mm 1 mps 630 mmHg 70%
    15:00 +11°C° 0.1 mm 1 mps 630 mmHg 70%
    16:00 +10°C° 0 mm 1 mps 629 mmHg 74%
    17:00 +9°C° 0 mm 1 mps 629 mmHg 77%
    18:00 +8°C° 0 mm 1 mps 628 mmHg 80%
    19:00 +7°C° 0 mm 1 mps 628 mmHg 82%
    20:00 +6°C° 0 mm 1 mps 627 mmHg 84%
    21:00 +5°C° 0 mm 1 mps 627 mmHg 87%
    22:00 +4°C° 0 mm 1 mps 626 mmHg 86%
    23:00 +4°C° 0 mm 1 mps 626 mmHg 85%

    Tomorrow, 22 April, Monday

    Time Temperature Precipitation Wind Pressure Humidity
    00:00 +4°C° 0 mm 1 mps 625 mmHg 84%
    01:00 +4°C° 0 mm 1 mps 625 mmHg 84%
    02:00 +4°C° 0 mm 1 mps 624 mmHg 84%
    03:00 +4°C° 0 mm 1 mps 624 mmHg 84%
    04:00 +4°C° 0.1 mm 1 mps 624 mmHg 84%
    05:00 +5°C° 0.1 mm 1 mps 624 mmHg 84%
    06:00 +5°C° 0.1 mm 1 mps 624 mmHg 84%
    07:00 +6°C° 0.2 mm 1 mps 624 mmHg 81%
    08:00 +8°C° 0.2 mm 1 mps 624 mmHg 78%
    09:00 +9°C° 0.2 mm 1 mps 624 mmHg 75%
    10:00 +10°C° 0.1 mm 1 mps 624 mmHg 73%
    11:00 +11°C° 0.1 mm 1 mps 624 mmHg 71%
    12:00 +12°C° 0.1 mm 1 mps 624 mmHg 69%
    13:00 +11°C° 0.2 mm 1 mps 624 mmHg 71%
    14:00 +11°C° 0.2 mm 1 mps 623 mmHg 73%
    15:00 +11°C° 0.2 mm 1 mps 623 mmHg 75%
    16:00 +10°C° 0.5 mm 1 mps 622 mmHg 78%
    17:00 +9°C° 0.5 mm 1 mps 622 mmHg 81%
    18:00 +8°C° 0.5 mm 0 mps 622 mmHg 85%
    19:00 +8°C° 0.3 mm 1 mps 622 mmHg 87%
    20:00 +7°C° 0.3 mm 1 mps 622 mmHg 90%
    21:00 +7°C° 0.3 mm 1 mps 622 mmHg 93%
    22:00 +7°C° 0.6 mm 1 mps 621 mmHg 94%
    23:00 +7°C° 0.6 mm 1 mps 621 mmHg 95%

    Day after tomorrow, 23 April, Tuesday

    Time Temperature Precipitation Wind Pressure Humidity
    00:00 +6°C° 0.6 mm 1 mps 621 mmHg 95%
    01:00 +6°C° 0.5 mm 1 mps 620 mmHg 95%
    02:00 +5°C° 0.5 mm 2 mps 620 mmHg 95%
    03:00 +5°C° 0.5 mm 2 mps 619 mmHg 94%
    04:00 +5°C° 0.1 mm 2 mps 619 mmHg 93%
    05:00 +6°C° 0.1 mm 1 mps 619 mmHg 91%
    06:00 +6°C° 0.1 mm 1 mps 619 mmHg 89%
    07:00 +7°C° 0 mm 2 mps 620 mmHg 83%
    08:00 +8°C° 0 mm 2 mps 621 mmHg 76%
    09:00 +10°C° 0 mm 2 mps 621 mmHg 70%
    10:00 +11°C° 0.4 mm 3 mps 622 mmHg 68%
    11:00 +11°C° 0.4 mm 3 mps 622 mmHg 66%
    12:00 +12°C° 0.4 mm 3 mps 622 mmHg 65%
    13:00 +11°C° 0.2 mm 4 mps 622 mmHg 65%
    14:00 +11°C° 0.2 mm 4 mps 621 mmHg 65%
    15:00 +10°C° 0.2 mm 4 mps 621 mmHg 66%
    16:00 +9°C° 0.1 mm 3 mps 621 mmHg 72%
    17:00 +8°C° 0.1 mm 3 mps 621 mmHg 79%
    18:00 +7°C° 0.1 mm 2 mps 620 mmHg 85%
    19:00 +6°C° 0.2 mm 2 mps 621 mmHg 89%
    20:00 +5°C° 0.2 mm 2 mps 621 mmHg 92%
    21:00 +5°C° 0.2 mm 2 mps 622 mmHg 96%
    22:00 +5°C° 0.4 mm 2 mps 622 mmHg 96%
    23:00 +5°C° 0.4 mm 2 mps 622 mmHg 96%

    24 April, Wednesday

    Time Temperature Precipitation Wind Pressure Humidity
    00:00 +5°C° 0.4 mm 2 mps 622 mmHg 96%
    01:00 +5°C° 1 mm 2 mps 622 mmHg 96%
    02:00 +4°C° 1 mm 2 mps 622 mmHg 96%
    03:00 +4°C° 1 mm 2 mps 622 mmHg 96%
    04:00 +3°C° 0.1 mm 2 mps 622 mmHg 94%
    05:00 +3°C° 0.1 mm 2 mps 622 mmHg 93%
    06:00 +1°C° 0.1 mm 3 mps 622 mmHg 91%
    07:00 +2°C° 0 mm 3 mps 623 mmHg 82%
    08:00 +3°C° 0 mm 3 mps 624 mmHg 73%
    09:00 +4°C° 0 mm 4 mps 625 mmHg 64%
    10:00 +5°C° 0.1 mm 4 mps 625 mmHg 60%
    11:00 +5°C° 0.1 mm 5 mps 625 mmHg 57%
    12:00 +6°C° 0.1 mm 5 mps 625 mmHg 53%
    13:00 +6°C° 0 mm 5 mps 625 mmHg 53%
    14:00 +7°C° 0 mm 5 mps 626 mmHg 53%
    15:00 +7°C° 0 mm 4 mps 626 mmHg 53%
    16:00 +7°C° 0 mm 4 mps 626 mmHg 56%
    17:00 +7°C° 0 mm 3 mps 626 mmHg 58%
    18:00 +5°C° 0 mm 3 mps 626 mmHg 61%
    19:00 +4°C° 0 mm 3 mps 626 mmHg 63%
    20:00 +3°C° 0 mm 3 mps 626 mmHg 65%
    21:00 +1°C° 0 mm 3 mps 625 mmHg 68%
    22:00 +1°C° 0 mm 3 mps 625 mmHg 74%
    23:00 0°C° 0 mm 4 mps 625 mmHg 79%

    25 April, Thursday

    Time Temperature Precipitation Wind Pressure Humidity
    00:00 0°C° 0 mm 4 mps 625 mmHg 85%
    01:00 +1°C° 0 mm 4 mps 625 mmHg 86%
    02:00 +1°C° 0 mm 4 mps 625 mmHg 87%
    03:00 +1°C° 0 mm 4 mps 625 mmHg 89%
    04:00 +3°C° 0.3 mm 4 mps 625 mmHg 89%
    05:00 +3°C° 0.3 mm 4 mps 626 mmHg 90%
    06:00 +3°C° 0.3 mm 4 mps 626 mmHg 90%
    07:00 +4°C° 0.2 mm 4 mps 626 mmHg 89%
    08:00 +4°C° 0.2 mm 4 mps 627 mmHg 88%
    09:00 +5°C° 0.2 mm 4 mps 627 mmHg 86%
    10:00 +5°C° 0.3 mm 4 mps 628 mmHg 86%
    11:00 +5°C° 0.3 mm 4 mps 628 mmHg 86%
    12:00 +6°C° 0.3 mm 4 mps 628 mmHg 85%
    13:00 +6°C° 0.4 mm 4 mps 628 mmHg 86%
    14:00 +6°C° 0.4 mm 4 mps 628 mmHg 86%
    15:00 +7°C° 0.4 mm 3 mps 628 mmHg 87%
    16:00 +7°C° 0.2 mm 3 mps 629 mmHg 86%
    17:00 +6°C° 0.2 mm 2 mps 629 mmHg 86%
    18:00 +6°C° 0.2 mm 2 mps 629 mmHg 85%
    19:00 +5°C° 0.1 mm 2 mps 629 mmHg 86%
    20:00 +3°C° 0.1 mm 2 mps 629 mmHg 87%
    21:00 +3°C° 0.1 mm 1 mps 629 mmHg 88%
    22:00 +2°C° 0 mm 1 mps 630 mmHg 86%
    23:00 +1°C° 0 mm 1 mps 630 mmHg 84%

    26 April, Friday

    Time Temperature Precipitation Wind Pressure Humidity
    00:00 +1°C° 0 mm 1 mps 630 mmHg 82%
    01:00 +1°C° 0.3 mm 1 mps 630 mmHg 85%
    02:00 -1°C° 0.3 mm 2 mps 631 mmHg 89%
    03:00 -1°C° 0.3 mm 2 mps 631 mmHg 93%
    04:00 -1°C° 0.1 mm 2 mps 632 mmHg 92%
    05:00 -1°C° 0.1 mm 2 mps 632 mmHg 91%
    06:00 +1°C° 0.1 mm 2 mps 633 mmHg 91%
    07:00 +2°C° 0 mm 2 mps 634 mmHg 83%
    08:00 +3°C° 0 mm 2 mps 635 mmHg 76%
    09:00 +5°C° 0 mm 2 mps 636 mmHg 68%
    10:00 +6°C° 0 mm 2 mps 636 mmHg 63%
    11:00 +9°C° 0 mm 1 mps 637 mmHg 57%
    12:00 +11°C° 0 mm 1 mps 638 mmHg 52%
    13:00 +9°C° 0 mm 2 mps 637 mmHg 54%
    14:00 +9°C° 0 mm 2 mps 637 mmHg 57%
    15:00 +8°C° 0 mm 2 mps 637 mmHg 60%
    16:00 +7°C° 0 mm 2 mps 637 mmHg 66%
    17:00 +6°C° 0 mm 2 mps 637 mmHg 73%
    18:00 +5°C° 0 mm 2 mps 637 mmHg 80%
    19:00 +4°C° 0 mm 2 mps 637 mmHg 84%
    20:00 +3°C° 0 mm 2 mps 637 mmHg 88%
    21:00 +2°C° 0 mm 2 mps 637 mmHg 92%
    22:00 +2°C° 0 mm 2 mps 637 mmHg 90%
    23:00 +1°C° 0 mm 2 mps 637 mmHg 89%
    Show more